This is the latest recevied weather packets stored in our database for station/object W5ADC. If no packets are shown the sender has not sent any weather packets the latest 1 day(s).
| Time | Temp. | Humidity | Pressure | Rain* | Wind** | Luminosity | Snow |
|---|---|---|---|---|---|---|---|
| 1778022210 | 29.44° C | 51% | 1000.3 hPa | 0 mm | 2.24 m/s, 339° | 137 W/m² | - |
| 1778021907 | 30° C | 50% | 1000.1 hPa | 0 mm | 1.34 m/s, 319° | 123 W/m² | - |
| 1778021605 | 31.67° C | 50% | 1000.1 hPa | 0 mm | 1.79 m/s, 3° | 158 W/m² | - |
| 1778021299 | 31.67° C | 54% | 999.9 hPa | 0 mm | 1.34 m/s, 252° | 223 W/m² | - |
| 1778020997 | 31.67° C | 53% | 999.9 hPa | 0 mm | 0 m/s | 190 W/m² | - |
| 1778020694 | 31.11° C | 54% | 1000.1 hPa | 0 mm | 0.45 m/s, 222° | 112 W/m² | - |
| 1778020392 | 31.67° C | 54% | 999.9 hPa | 0 mm | 0.45 m/s, 187° | 116 W/m² | - |
| 1778020087 | 31.67° C | 54% | 999.7 hPa | 0 mm | 1.34 m/s, 217° | 149 W/m² | - |
| 1778019783 | 31.67° C | 54% | 999.7 hPa | 0 mm | 0.89 m/s, 173° | 338 W/m² | - |
| 1778019481 | 31.67° C | 54% | 999.6 hPa | 0 mm | 0.89 m/s, 191° | 364 W/m² | - |
| 1778019177 | 31.11° C | 55% | 999.7 hPa | 0 mm | 2.24 m/s, 223° | 172 W/m² | - |
| 1778018874 | 31.67° C | 55% | 999.5 hPa | 0 mm | 1.34 m/s, 209° | 141 W/m² | - |
| 1778018572 | 32.22° C | 55% | 999.8 hPa | 0 mm | 0.89 m/s, 166° | 321 W/m² | - |
| 1778018270 | 31.67° C | 55% | 999.8 hPa | 0 mm | 0.89 m/s, 185° | 567 W/m² | - |
| 1778017967 | 31.11° C | 55% | 999.8 hPa | 0 mm | 0.89 m/s, 203° | 535 W/m² | - |
| 1778017665 | 31.11° C | 57% | 999.9 hPa | 0 mm | 0.45 m/s, 0° | 302 W/m² | - |
| 1778017362 | 31.67° C | 55% | 999.8 hPa | 0 mm | 1.34 m/s, 136° | 249 W/m² | - |
| 1778017059 | 31.11° C | 56% | 999.6 hPa | 0 mm | 1.79 m/s, 185° | 240 W/m² | - |
| 1778016756 | 31.67° C | 57% | 999.9 hPa | 0 mm | 2.24 m/s, 175° | 161 W/m² | - |
| 1778016452 | 31.67° C | 58% | 999.9 hPa | 0 mm | 1.79 m/s, 210° | 563 W/m² | - |
| 1778016150 | 31.11° C | 60% | 1000 hPa | 0 mm | 1.34 m/s, 196° | 564 W/m² | - |
| 1778015846 | 31.67° C | 58% | 1000.1 hPa | 0 mm | 2.24 m/s, 277° | 206 W/m² | - |
| 1778015544 | 31.67° C | 57% | 1000.1 hPa | 0 mm | 0.45 m/s, 205° | 687 W/m² | - |
| 1778015240 | 31.67° C | 60% | 1000.3 hPa | 0 mm | 0.45 m/s, 204° | 169 W/m² | - |
| 1778014937 | 31.67° C | 59% | 1000 hPa | 0 mm | 0.89 m/s, 213° | 276 W/m² | - |
* Rain latest hour (hover to see other rain measurements)
** Current wind speed in m/s (hover to see current wind gust speed)